Location: Huntsville
(41.2590°N, 111.7678°W)
Time: 07:04:19
(UTC+00:00)

Vanguard 3 - Pass Details

Date: 21 June 2021
Orbit: 508 x 3261 km, 33.4° (Epoch: 29 July)

Event Time Altitude Azimuth Distance (km) Brightness Sun altitude
Rises 19:29:03 0° 259° (W) 3,267 10.3 72.2°
Reaches altitude 10° 19:31:59 10° 238° (WSW) 2,649 10.1 72.2°
Maximum altitude 19:36:06 18° 198° (SSW) 2,585 10.3 72.1°
Drops below altitude 10° 19:41:39 10° 161° (SSE) 3,764 10.9 72.0°
Sets 19:47:07 0° 145° (SE) 5,363 11.5 71.8°
